Norfolk, NE

1:47 AM CST on December 16, 2019 (GMT -0600)
Stefan Memorial

Weather History for KOFK - October, 2019

Change the Weather History Date:

Wednesday, October 30, 2019

  Actual Average Record
Temperature  
Mean Temperature 25 °F 45 °F  
Max Temperature 34 °F 57 °F 90 °F (1950)
Min Temperature 15 °F 33 °F 2 °F (1925)
Degree Days  
Heating Degree Days 40 20  
Month to date heating degree days 559 423  
Since 1 July heating degree days 589 565  
Cooling Degree Days 0 0  
Month to date cooling degree days 0 8  
Year to date cooling degree days 949 914  
Moisture  
Dew Point 13 °F    
Average Humidity 58    
Maximum Humidity 74    
Minimum Humidity 41    
Precipitation  
Precipitation 0.00 in 0.04 in 1.90 in (1979)
Month to date precipitation 1.93 2.02  
Year to date precipitation 23.96 25.24  
Snow  
Snow 0.00 in 0.00 in - ()
Month to date snowfall T 0.7  
Since 1 July snowfall T 0.7  
Since 1 September snowfall T 0.7  
Snow Depth 0.00 in    
Sea Level Pressure  
Sea Level Pressure 30.40 in    
Wind  
Wind Speed 10 mph (NNW)    
Max Wind Speed 18 mph    
Max Gust Speed 24 mph    
Visibility 10 miles    
Events      
T = Trace of Precipitation, MM = Missing Value Source: NWS Daily Summary

Daily Weather History Graph

Daily Weather History Graph

Search for Another Location

Airport or City:

Astronomy

Oct. 30, 2019 Rise Set
Actual Time 7:59 AM CDT 6:26 PM CDT
Civil Twilight 7:30 AM CDT 6:55 PM CDT
Nautical Twilight 6:57 AM CDT 7:28 PM CDT
Astronomical Twilight 6:25 AM CDT 8:00 PM CDT
Moon 10:46 AM CDT (10/30) 8:32 PM CDT (10/30)
Length of Visible Light 11h 24m
Length of Day
10h 26m
Waxing Crescent, 9% of the Moon is Illuminated
Oct 30
Waxing Crescent
Nov 4
First Quarter
Nov 12
Full
Nov 19
Last Quarter
Nov 26
New

Hourly Weather History & Observations

Time (CDT) Temp. Windchill Dew Point Humidity Pressure Visibility Wind Dir Wind Speed Gust Speed Precip Events Conditions
12:56 AM 26.1 °F 16.8 °F 15.1 °F 63% 30.45 in 10.0 mi NW 9.2 mph - N/A   Overcast
1:56 AM 25.0 °F 15.5 °F 15.1 °F 66% 30.45 in 10.0 mi NW 9.2 mph - N/A   Overcast
2:56 AM 26.1 °F 16.2 °F 14.0 °F 60% 30.43 in 10.0 mi NNW 10.4 mph - N/A   Overcast
3:56 AM 25.0 °F 14.2 °F 14.0 °F 63% 30.45 in 10.0 mi NNW 11.5 mph - N/A   Overcast
4:56 AM 25.0 °F 14.8 °F 14.0 °F 63% 30.45 in 10.0 mi NNW 10.4 mph - N/A   Overcast
5:56 AM 24.1 °F 13.1 °F 14.0 °F 65% 30.45 in 10.0 mi NNW 11.5 mph - N/A   Overcast
6:56 AM 24.1 °F 15.2 °F 15.1 °F 69% 30.45 in 10.0 mi North 8.1 mph - N/A   Overcast
7:56 AM 24.1 °F 13.7 °F 14.0 °F 65% 30.45 in 10.0 mi NNW 10.4 mph - N/A   Overcast
8:56 AM 25.0 °F 13.6 °F 15.1 °F 66% 30.46 in 10.0 mi NNW 12.7 mph - N/A   Overcast
9:56 AM 26.1 °F 15.0 °F 14.0 °F 60% 30.46 in 10.0 mi NNW 12.7 mph - N/A   Overcast
10:56 AM 28.0 °F 17.0 °F 12.9 °F 53% 30.46 in 10.0 mi North 13.8 mph - N/A   Overcast
11:56 AM 28.9 °F 17.7 °F 12.9 °F 51% 30.44 in 10.0 mi NNW 15.0 mph - N/A   Overcast
12:56 PM 30.0 °F 21.1 °F 12.9 °F 49% 30.42 in 10.0 mi North 10.4 mph - N/A   Overcast
1:56 PM 32.0 °F 22.5 °F 12.9 °F 45% 30.38 in 10.0 mi North 12.7 mph - N/A   Mostly Cloudy
2:56 PM 33.1 °F 23.0 °F 12.9 °F 43% 30.35 in 10.0 mi NNW 15.0 mph - N/A   Clear
3:56 PM 33.1 °F 23.0 °F 12.9 °F 43% 30.32 in 10.0 mi NNW 15.0 mph - N/A   Clear
4:56 PM 32.0 °F 23.0 °F 14.0 °F 48% 30.32 in 10.0 mi NNW 11.5 mph - N/A   Partly Cloudy
5:56 PM 30.9 °F 20.7 °F 12.0 °F 46% 30.31 in 10.0 mi NNW 13.8 mph - N/A   Overcast
6:56 PM 26.1 °F 20.5 °F 10.9 °F 53% 30.33 in 10.0 mi NNW 4.6 mph - N/A   Clear
7:56 PM 25.0 °F 17.1 °F 12.0 °F 58% 30.33 in 10.0 mi NW 6.9 mph - N/A   Clear
8:56 PM 23.0 °F 17.0 °F 12.0 °F 63% 30.32 in 10.0 mi WNW 4.6 mph - N/A   Clear
9:56 PM 18.0 °F 9.8 °F 10.0 °F 71% 30.33 in 10.0 mi West 5.8 mph - N/A   Clear
10:56 PM 18.0 °F 8.7 °F 10.0 °F 71% 30.33 in 10.0 mi West 6.9 mph - N/A   Clear
11:56 PM 18.0 °F 8.7 °F 10.0 °F 71% 30.32 in 10.0 mi WSW 6.9 mph - N/A   Clear